| time (UTC) | temp C | wind direction | speed KPH | gust KPH | rain 1hr cm | rain 24hr cm | rain mn cm | humidity % | barometer mb |
| 20260506233644 | 25 | 282 | 29.0 | 37.0 | 0.00 | 0.00 | 0.00 | 8 | 997.0 |
| 20260506233145 | 25 | 249 | 30.6 | 35.4 | 0.00 | 0.00 | 0.00 | 10 | 997.0 |
| 20260506232645 | 25 | 233 | 14.5 | 24.1 | 0.00 | 0.00 | 0.00 | 9 | 997.0 |
| 20260506232144 | 25 | 242 | 41.8 | 49.9 | 0.00 | 0.00 | 0.00 | 9 | 997.0 |
| 20260506231644 | 25 | 239 | 43.5 | 56.3 | 0.00 | 0.00 | 0.00 | 9 | 997.0 |
| 20260506231144 | 25 | 236 | 24.1 | 32.2 | 0.00 | 0.00 | 0.00 | 10 | 996.0 |
| 20260506230645 | 25 | 232 | 33.8 | 46.7 | 0.00 | 0.00 | 0.00 | 10 | 996.0 |
| 20260506230144 | 25 | 270 | 33.8 | 48.3 | 0.00 | 0.00 | 0.00 | 8 | 997.0 |
| 20260506225645 | 25 | 222 | 35.4 | 46.7 | 0.00 | 0.00 | 0.00 | 10 | 996.0 |
| 20260506225145 | 25 | 257 | 24.1 | 33.8 | 0.00 | 0.00 | 0.00 | 9 | 996.0 |
| 20260506224644 | 25 | 240 | 35.4 | 43.5 | 0.00 | 0.00 | 0.00 | 9 | 996.0 |
| 20260506224144 | 26 | 271 | 24.1 | 40.2 | 0.00 | 0.00 | 0.00 | 9 | 996.0 |
| 20260506223645 | 25 | 253 | 30.6 | 53.1 | 0.00 | 0.00 | 0.00 | 10 | 996.0 |
| 20260506223145 | 25 | 239 | 29.0 | 41.8 | 0.00 | 0.00 | 0.00 | 9 | 996.0 |
| 20260506222644 | 25 | 244 | 37.0 | 49.9 | 0.00 | 0.00 | 0.00 | 9 | 996.0 |
| 20260506222144 | 25 | 237 | 32.2 | 49.9 | 0.00 | 0.00 | 0.00 | 9 | 996.0 |
| 20260506221645 | 25 | 271 | 33.8 | 38.6 | 0.00 | 0.00 | 0.00 | 9 | 996.0 |
| 20260506221145 | 25 | 241 | 29.0 | 56.3 | 0.00 | 0.00 | 0.00 | 8 | 996.0 |
| 20260506220644 | 25 | 218 | 27.4 | 53.1 | 0.00 | 0.00 | 0.00 | 9 | 996.0 |
| 20260506220144 | 25 | 257 | 16.1 | 27.4 | 0.00 | 0.00 | 0.00 | 8 | 996.0 |
| 20260506215644 | 26 | 263 | 40.2 | 67.6 | 0.00 | 0.00 | 0.00 | 8 | 996.0 |
| 20260506215144 | 26 | 286 | 22.5 | 53.1 | 0.00 | 0.00 | 0.00 | 8 | 996.0 |
| 20260506214644 | 26 | 246 | 25.7 | 61.2 | 0.00 | 0.00 | 0.00 | 9 | 996.0 |
| 20260506214145 | 26 | 257 | 38.6 | 64.4 | 0.00 | 0.00 | 0.00 | 9 | 996.0 |
| 20260506213645 | 25 | 263 | 22.5 | 37.0 | 0.00 | 0.00 | 0.00 | 9 | 996.0 |
| 20260506213146 | 25 | 230 | 41.8 | 54.7 | 0.00 | 0.00 | 0.00 | 8 | 996.0 |
| 20260506212645 | 25 | 221 | 43.5 | 66.0 | 0.00 | 0.00 | 0.00 | 9 | 996.0 |
| 20260506212146 | 25 | 234 | 40.2 | 66.0 | 0.00 | 0.00 | 0.00 | 8 | 996.0 |
| 20260506211644 | 25 | 210 | 41.8 | 56.3 | 0.00 | 0.00 | 0.00 | 8 | 996.0 |
| 20260506211144 | 26 | 242 | 53.1 | 64.4 | 0.00 | 0.00 | 0.00 | 10 | 997.0 |
| 20260506210645 | 25 | 247 | 51.5 | 67.6 | 0.00 | 0.00 | 0.00 | 9 | 997.0 |
| 20260506210145 | 25 | 250 | 30.6 | 49.9 | 0.00 | 0.00 | 0.00 | 10 | 996.0 |
| 20260506205645 | 25 | 238 | 29.0 | 46.7 | 0.00 | 0.00 | 0.00 | 9 | 997.0 |
| 20260506205146 | 25 | 254 | 32.2 | 38.6 | 0.00 | 0.00 | 0.00 | 10 | 997.0 |
| 20260506204644 | 25 | 248 | 27.4 | 59.5 | 0.00 | 0.00 | 0.00 | 10 | 997.0 |
| 20260506204144 | 26 | 242 | 32.2 | 43.5 | 0.00 | 0.00 | 0.00 | 10 | 997.0 |
| 20260506203644 | 25 | 222 | 27.4 | 38.6 | 0.00 | 0.00 | 0.00 | 9 | 997.0 |
| 20260506203145 | 25 | 264 | 40.2 | 56.3 | 0.00 | 0.00 | 0.00 | 10 | 997.0 |
| 20260506202646 | 25 | 224 | 46.7 | 66.0 | 0.00 | 0.00 | 0.00 | 9 | 997.0 |
| 20260506202145 | 25 | 256 | 29.0 | 41.8 | 0.00 | 0.00 | 0.00 | 12 | 997.0 |
| 20260506201644 | 25 | 242 | 40.2 | 61.2 | 0.00 | 0.00 | 0.00 | 11 | 997.0 |
| 20260506201145 | 25 | 233 | 41.8 | 53.1 | 0.00 | 0.00 | 0.00 | 10 | 997.0 |
| 20260506200646 | 25 | 261 | 43.5 | 49.9 | 0.00 | 0.00 | 0.00 | 10 | 997.0 |
| 20260506200145 | 25 | 203 | 32.2 | 53.1 | 0.00 | 0.00 | 0.00 | 11 | 997.0 |
| 20260506195645 | 25 | 256 | 41.8 | 49.9 | 0.00 | 0.00 | 0.00 | 9 | 998.0 |
| 20260506195145 | 25 | 257 | 29.0 | 37.0 | 0.00 | 0.00 | 0.00 | 11 | 998.0 |
| 20260506194648 | 25 | 249 | 43.5 | 51.5 | 0.00 | 0.00 | 0.00 | 10 | 998.0 |
| 20260506194146 | 25 | 221 | 38.6 | 48.3 | 0.00 | 0.00 | 0.00 | 11 | 998.0 |
| 20260506193646 | 25 | 252 | 40.2 | 59.5 | 0.00 | 0.00 | 0.00 | 9 | 998.0 |
| 20260506193148 | 25 | 210 | 25.7 | 29.0 | 0.00 | 0.00 | 0.00 | 11 | 998.0 |
| 20260506192646 | 25 | 201 | 32.2 | 53.1 | 0.00 | 0.00 | 0.00 | 11 | 998.0 |
| 20260506192147 | 24 | 248 | 38.6 | 46.7 | 0.00 | 0.00 | 0.00 | 11 | 998.0 |
| 20260506191646 | 24 | 244 | 38.6 | 51.5 | 0.00 | 0.00 | 0.00 | 11 | 998.0 |
| 20260506191146 | 24 | 266 | 37.0 | 62.8 | 0.00 | 0.00 | 0.00 | 10 | 999.0 |
| 20260506190646 | 24 | 242 | 40.2 | 56.3 | 0.00 | 0.00 | 0.00 | 12 | 999.0 |
| 20260506190145 | 24 | 226 | 40.2 | 66.0 | 0.00 | 0.00 | 0.00 | 11 | 999.0 |
| 20260506185207 | 24 | 224 | 35.4 | 51.5 | 0.00 | 0.00 | 0.00 | 13 | 998.0 |
| 20260506184645 | 23 | 247 | 33.8 | 40.2 | 0.00 | 0.00 | 0.00 | 14 | 999.0 |
| 20260506184145 | 23 | 271 | 27.4 | 43.5 | 0.00 | 0.00 | 0.00 | 13 | 999.0 |
| 20260506183646 | 23 | 277 | 24.1 | 37.0 | 0.00 | 0.00 | 0.00 | 14 | 1000.0 |
| 20260506183144 | 23 | 241 | 35.4 | 46.7 | 0.00 | 0.00 | 0.00 | 14 | 1000.0 |
| 20260506182645 | 23 | 233 | 32.2 | 41.8 | 0.00 | 0.00 | 0.00 | 14 | 1000.0 |
| 20260506182145 | 23 | 241 | 30.6 | 37.0 | 0.00 | 0.00 | 0.00 | 14 | 1000.0 |
| 20260506181644 | 23 | 220 | 24.1 | 35.4 | 0.00 | 0.00 | 0.00 | 16 | 1000.0 |
| 20260506181145 | 23 | 251 | 38.6 | 48.3 | 0.00 | 0.00 | 0.00 | 16 | 1000.0 |
| 20260506180644 | 23 | 244 | 27.4 | 37.0 | 0.00 | 0.00 | 0.00 | 15 | 1001.0 |
| 20260506180147 | 22 | 263 | 27.4 | 46.7 | 0.00 | 0.00 | 0.00 | 15 | 1000.0 |
| 20260506175645 | 22 | 287 | 24.1 | 32.2 | 0.00 | 0.00 | 0.00 | 18 | 1001.0 |
| 20260506175147 | 22 | 250 | 22.5 | 29.0 | 0.00 | 0.00 | 0.00 | 18 | 1001.0 |
| 20260506174645 | 22 | 233 | 19.3 | 33.8 | 0.00 | 0.00 | 0.00 | 19 | 1001.0 |
| 20260506174145 | 22 | 268 | 27.4 | 43.5 | 0.00 | 0.00 | 0.00 | 18 | 1001.0 |
| 20260506173645 | 22 | 221 | 20.9 | 32.2 | 0.00 | 0.00 | 0.00 | 19 | 1001.0 |
| 20260506173145 | 21 | 208 | 16.1 | 32.2 | 0.00 | 0.00 | 0.00 | 20 | 1002.0 |
| 20260506172645 | 21 | 284 | 24.1 | 29.0 | 0.00 | 0.00 | 0.00 | 20 | 1002.0 |
| 20260506172145 | 21 | 273 | 22.5 | 38.6 | 0.00 | 0.00 | 0.00 | 18 | 1002.0 |
| 20260506171646 | 21 | 233 | 19.3 | 24.1 | 0.00 | 0.00 | 0.00 | 21 | 1002.0 |
| 20260506171144 | 21 | 240 | 27.4 | 33.8 | 0.00 | 0.00 | 0.00 | 21 | 1002.0 |
| 20260506170645 | 21 | 264 | 30.6 | 38.6 | 0.00 | 0.00 | 0.00 | 21 | 1002.0 |
| 20260506170146 | 21 | 222 | 25.7 | 29.0 | 0.00 | 0.00 | 0.00 | 21 | 1002.0 |
| 20260506165644 | 20 | 222 | 25.7 | 38.6 | 0.00 | 0.00 | 0.00 | 21 | 1003.0 |
| 20260506165147 | 20 | 229 | 25.7 | 35.4 | 0.00 | 0.00 | 0.00 | 22 | 1003.0 |
| 20260506164645 | 20 | 238 | 25.7 | 27.4 | 0.00 | 0.00 | 0.00 | 26 | 1003.0 |
| 20260506164145 | 20 | 257 | 25.7 | 33.8 | 0.00 | 0.00 | 0.00 | 24 | 1003.0 |
| 20260506163644 | 20 | 258 | 16.1 | 25.7 | 0.00 | 0.00 | 0.00 | 25 | 1003.0 |
| 20260506163145 | 19 | 259 | 22.5 | 25.7 | 0.00 | 0.00 | 0.00 | 25 | 1004.0 |
| 20260506162645 | 19 | 260 | 25.7 | 35.4 | 0.00 | 0.00 | 0.00 | 25 | 1004.0 |
| 20260506162145 | 18 | 204 | 24.1 | 27.4 | 0.00 | 0.00 | 0.00 | 27 | 1004.0 |
| 20260506161646 | 18 | 266 | 16.1 | 25.7 | 0.00 | 0.00 | 0.00 | 28 | 1004.0 |
| 20260506161144 | 18 | 274 | 16.1 | 25.7 | 0.00 | 0.00 | 0.00 | 29 | 1004.0 |
| 20260506160645 | 18 | 288 | 25.7 | 35.4 | 0.00 | 0.00 | 0.00 | 28 | 1004.0 |
| 20260506160147 | 18 | 251 | 14.5 | 27.4 | 0.00 | 0.00 | 0.00 | 28 | 1004.0 |
| 20260506155645 | 18 | 245 | 32.2 | 41.8 | 0.00 | 0.00 | 0.00 | 28 | 1004.0 |
| 20260506155146 | 18 | 240 | 35.4 | 38.6 | 0.00 | 0.00 | 0.00 | 30 | 1004.0 |
| 20260506154645 | 18 | 224 | 25.7 | 37.0 | 0.00 | 0.00 | 0.00 | 30 | 1005.0 |
| 20260506154145 | 17 | 246 | 29.0 | 38.6 | 0.00 | 0.00 | 0.00 | 30 | 1004.0 |
| 20260506153645 | 17 | 251 | 27.4 | 38.6 | 0.00 | 0.00 | 0.00 | 30 | 1005.0 |
| 20260506153145 | 17 | 249 | 29.0 | 43.5 | 0.00 | 0.00 | 0.00 | 30 | 1005.0 |
| 20260506152645 | 17 | 231 | 24.1 | 40.2 | 0.00 | 0.00 | 0.00 | 32 | 1005.0 |
| 20260506152145 | 17 | 228 | 25.7 | 35.4 | 0.00 | 0.00 | 0.00 | 32 | 1005.0 |
| 20260506151645 | 17 | 256 | 20.9 | 40.2 | 0.00 | 0.00 | 0.00 | 33 | 1005.0 |
| 20260506151145 | 17 | 237 | 24.1 | 37.0 | 0.00 | 0.00 | 0.00 | 33 | 1005.0 |
| 20260506150646 | 17 | 254 | 27.4 | 37.0 | 0.00 | 0.00 | 0.00 | 33 | 1005.0 |
| 20260506150150 | 16 | 240 | 27.4 | 41.8 | 0.00 | 0.00 | 0.00 | 33 | 1006.0 |
| 20260506145646 | 16 | 248 | 27.4 | 35.4 | 0.00 | 0.00 | 0.00 | 35 | 1006.0 |
| 20260506145145 | 16 | 254 | 24.1 | 35.4 | 0.00 | 0.00 | 0.00 | 35 | 1006.0 |
| 20260506144645 | 16 | 247 | 25.7 | 33.8 | 0.00 | 0.00 | 0.00 | 36 | 1006.0 |
| 20260506144146 | 16 | 240 | 20.9 | 27.4 | 0.00 | 0.00 | 0.00 | 38 | 1006.0 |
| 20260506143644 | 15 | 239 | 22.5 | 29.0 | 0.00 | 0.00 | 0.00 | 38 | 1007.0 |
| 20260506143146 | 15 | 239 | 6.4 | 11.3 | 0.00 | 0.00 | 0.00 | 41 | 1007.0 |
| 20260506142645 | 15 | 322 | 3.2 | 4.8 | 0.00 | 0.00 | 0.00 | 42 | 1007.0 |
| 20260506142145 | 14 | 4 | 6.4 | 11.3 | 0.00 | 0.00 | 0.00 | 41 | 1007.0 |
| 20260506141645 | 14 | 11 | 8.0 | 11.3 | 0.00 | 0.00 | 0.00 | 43 | 1008.0 |
| 20260506141145 | 13 | 298 | 4.8 | 8.0 | 0.00 | 0.00 | 0.00 | 44 | 1008.0 |
| 20260506140645 | 13 | 358 | 1.6 | 3.2 | 0.00 | 0.00 | 0.00 | 45 | 1008.0 |
| 20260506140145 | 12 | 3 | 3.2 | 3.2 | 0.00 | 0.00 | 0.00 | 47 | 1009.0 |
| 20260506135645 | 12 | 30 | 1.6 | 3.2 | 0.00 | 0.00 | 0.00 | 48 | 1009.0 |
| 20260506135145 | 12 | 356 | 6.4 | 8.0 | 0.00 | 0.00 | 0.00 | 49 | 1009.0 |
| 20260506134644 | 11 | 11 | 3.2 | 3.2 | 0.00 | 0.00 | 0.00 | 50 | 1010.0 |
| 20260506134145 | 11 | 354 | 3.2 | 3.2 | 0.00 | 0.00 | 0.00 | 52 | 1010.0 |
| 20260506133646 | 11 | 112 | 3.2 | 3.2 | 0.00 | 0.00 | 0.00 | 52 | 1010.0 |
| 20260506133145 | 10 | 97 | 4.8 | 4.8 | 0.00 | 0.00 | 0.00 | 53 | 1010.0 |
| 20260506132645 | 10 | 155 | 3.2 | 4.8 | 0.00 | 0.00 | 0.00 | 53 | 1011.0 |
| 20260506132144 | 10 | 158 | 6.4 | 8.0 | 0.00 | 0.00 | 0.00 | 55 | 1011.0 |
| 20260506131646 | 9 | 191 | 8.0 | 11.3 | 0.00 | 0.00 | 0.00 | 57 | 1011.0 |
| 20260506131145 | 8 | 209 | 14.5 | 16.1 | 0.00 | 0.00 | 0.00 | 56 | 1012.0 |
| 20260506130645 | 8 | 225 | 11.3 | 16.1 | 0.00 | 0.00 | 0.00 | 57 | 1012.0 |
| 20260506130146 | 8 | 222 | 12.9 | 17.7 | 0.00 | 0.00 | 0.00 | 56 | 1012.0 |
| 20260506125645 | 8 | 222 | 11.3 | 16.1 | 0.00 | 0.00 | 0.00 | 55 | 1012.0 |
| 20260506125144 | 8 | 243 | 9.7 | 14.5 | 0.00 | 0.00 | 0.00 | 55 | 1012.0 |
| 20260506124645 | 8 | 223 | 9.7 | 12.9 | 0.00 | 0.00 | 0.00 | 56 | 1012.0 |
| 20260506124145 | 8 | 227 | 12.9 | 16.1 | 0.00 | 0.00 | 0.00 | 56 | 1012.0 |
| 20260506123646 | 8 | 204 | 9.7 | 16.1 | 0.00 | 0.00 | 0.00 | 56 | 1012.0 |
| 20260506123146 | 8 | 229 | 11.3 | 16.1 | 0.00 | 0.00 | 0.00 | 54 | 1011.0 |
| 20260506122645 | 8 | 190 | 9.7 | 11.3 | 0.00 | 0.00 | 0.00 | 54 | 1011.0 |
| 20260506122145 | 8 | 202 | 8.0 | 12.9 | 0.00 | 0.00 | 0.00 | 53 | 1011.0 |
| 20260506121645 | 9 | 236 | 9.7 | 11.3 | 0.00 | 0.00 | 0.00 | 52 | 1011.0 |
| 20260506121146 | 9 | 215 | 8.0 | 9.7 | 0.00 | 0.00 | 0.00 | 53 | 1010.0 |
| 20260506120645 | 9 | 228 | 1.6 | 3.2 | 0.00 | 0.00 | 0.00 | 52 | 1010.0 |
| 20260506120145 | 9 | 137 | 1.6 | 3.2 | 0.00 | 0.00 | 0.00 | 52 | 1011.0 |
| 20260506115645 | 9 | 185 | 3.2 | 3.2 | 0.00 | 0.00 | 0.00 | 51 | 1011.0 |
| 20260506115145 | 9 | 203 | 0.0 | 1.6 | 0.00 | 0.00 | 0.00 | 51 | 1010.0 |
| 20260506114645 | 9 | 77 | 0.0 | 1.6 | 0.00 | 0.00 | 0.00 | 52 | 1011.0 |
| 20260506114145 | 9 | 66 | 1.6 | 1.6 | 0.00 | 0.00 | 0.00 | 51 | 1010.0 |
| 20260506113645 | 9 | 68 | 6.4 | 8.0 | 0.00 | 0.00 | 0.00 | 52 | 1010.0 |
| 20260506113147 | 9 | 78 | 8.0 | 9.7 | 0.00 | 0.00 | 0.00 | 51 | 1010.0 |
| 20260506112647 | 9 | 47 | 3.2 | 4.8 | 0.00 | 0.00 | 0.00 | 52 | 1010.0 |
| 20260506112150 | 9 | 22 | 3.2 | 4.8 | 0.00 | 0.00 | 0.00 | 52 | 1010.0 |
| 20260506111647 | 9 | 57 | 8.0 | 11.3 | 0.00 | 0.00 | 0.00 | 51 | 1011.0 |
| 20260506111147 | 9 | 33 | 6.4 | 9.7 | 0.00 | 0.00 | 0.00 | 51 | 1010.0 |
| 20260506110646 | 10 | 67 | 3.2 | 4.8 | 0.00 | 0.00 | 0.00 | 50 | 1010.0 |
| 20260506110147 | 10 | 242 | 4.8 | 4.8 | 0.00 | 0.00 | 0.00 | 50 | 1010.0 |
| 20260506105646 | 10 | 242 | 8.0 | 11.3 | 0.00 | 0.00 | 0.00 | 50 | 1010.0 |
| 20260506105146 | 10 | 263 | 8.0 | 11.3 | 0.00 | 0.00 | 0.00 | 50 | 1009.0 |
| 20260506104645 | 10 | 235 | 9.7 | 16.1 | 0.00 | 0.00 | 0.00 | 51 | 1009.0 |
| 20260506104146 | 10 | 239 | 8.0 | 14.5 | 0.00 | 0.00 | 0.00 | 51 | 1009.0 |
| 20260506103647 | 10 | 245 | 9.7 | 14.5 | 0.00 | 0.00 | 0.00 | 51 | 1009.0 |
| 20260506103146 | 10 | 231 | 16.1 | 24.1 | 0.00 | 0.00 | 0.00 | 51 | 1009.0 |
| 20260506102647 | 10 | 223 | 12.9 | 17.7 | 0.00 | 0.00 | 0.00 | 51 | 1009.0 |
| 20260506102145 | 10 | 242 | 12.9 | 14.5 | 0.00 | 0.00 | 0.00 | 51 | 1009.0 |
| 20260506101646 | 10 | 236 | 14.5 | 22.5 | 0.00 | 0.00 | 0.00 | 51 | 1009.0 |
| 20260506101147 | 10 | 236 | 17.7 | 22.5 | 0.00 | 0.00 | 0.00 | 51 | 1009.0 |
| 20260506100647 | 10 | 241 | 16.1 | 24.1 | 0.00 | 0.00 | 0.00 | 51 | 1009.0 |
| 20260506100145 | 10 | 243 | 16.1 | 20.9 | 0.00 | 0.00 | 0.00 | 51 | 1009.0 |
| 20260506095645 | 10 | 243 | 17.7 | 22.5 | 0.00 | 0.00 | 0.00 | 51 | 1009.0 |
| 20260506095144 | 10 | 241 | 17.7 | 22.5 | 0.00 | 0.00 | 0.00 | 51 | 1009.0 |
| 20260506094645 | 10 | 250 | 17.7 | 33.8 | 0.00 | 0.00 | 0.00 | 52 | 1009.0 |
| 20260506094145 | 10 | 221 | 14.5 | 16.1 | 0.00 | 0.00 | 0.00 | 51 | 1009.0 |
| 20260506093645 | 10 | 242 | 14.5 | 22.5 | 0.00 | 0.00 | 0.00 | 51 | 1009.0 |
| 20260506093144 | 10 | 236 | 14.5 | 22.5 | 0.00 | 0.00 | 0.00 | 51 | 1009.0 |
| 20260506092644 | 10 | 237 | 14.5 | 20.9 | 0.00 | 0.00 | 0.00 | 50 | 1009.0 |
| 20260506092145 | 10 | 245 | 16.1 | 24.1 | 0.00 | 0.00 | 0.00 | 49 | 1009.0 |
| 20260506091644 | 10 | 231 | 14.5 | 20.9 | 0.00 | 0.00 | 0.00 | 49 | 1009.0 |
| 20260506091146 | 11 | 240 | 14.5 | 20.9 | 0.00 | 0.00 | 0.00 | 48 | 1009.0 |
| 20260506090650 | 11 | 235 | 16.1 | 22.5 | 0.00 | 0.00 | 0.00 | 48 | 1008.0 |
| 20260506090145 | 11 | 247 | 17.7 | 24.1 | 0.00 | 0.00 | 0.00 | 48 | 1008.0 |
| 20260506085645 | 11 | 242 | 17.7 | 22.5 | 0.00 | 0.00 | 0.00 | 47 | 1008.0 |
| 20260506085145 | 11 | 243 | 17.7 | 25.7 | 0.00 | 0.00 | 0.00 | 46 | 1008.0 |
| 20260506084644 | 11 | 240 | 20.9 | 22.5 | 0.00 | 0.00 | 0.00 | 46 | 1008.0 |
| 20260506084145 | 11 | 243 | 19.3 | 25.7 | 0.00 | 0.00 | 0.00 | 46 | 1008.0 |
| 20260506083645 | 11 | 240 | 22.5 | 33.8 | 0.00 | 0.00 | 0.00 | 46 | 1008.0 |
| 20260506083144 | 11 | 253 | 19.3 | 25.7 | 0.00 | 0.00 | 0.00 | 45 | 1008.0 |
| 20260506082644 | 11 | 247 | 20.9 | 27.4 | 0.00 | 0.00 | 0.00 | 45 | 1008.0 |
| 20260506082144 | 11 | 244 | 20.9 | 25.7 | 0.00 | 0.00 | 0.00 | 45 | 1008.0 |
| 20260506081644 | 11 | 244 | 20.9 | 27.4 | 0.00 | 0.00 | 0.00 | 45 | 1008.0 |
| 20260506081144 | 11 | 250 | 22.5 | 29.0 | 0.00 | 0.00 | 0.00 | 45 | 1008.0 |
| 20260506080644 | 11 | 247 | 19.3 | 25.7 | 0.00 | 0.00 | 0.00 | 45 | 1008.0 |
| 20260506080145 | 11 | 251 | 19.3 | 25.7 | 0.00 | 0.00 | 0.00 | 45 | 1009.0 |
| 20260506073145 | 11 | 256 | 17.7 | 22.5 | 0.00 | 0.00 | 0.00 | 42 | 1009.0 |
| 20260506072646 | 11 | 249 | 17.7 | 24.1 | 0.00 | 0.00 | 0.00 | 42 | 1009.0 |
| 20260506072145 | 11 | 248 | 16.1 | 20.9 | 0.00 | 0.00 | 0.00 | 41 | 1009.0 |
| 20260506071645 | 11 | 260 | 16.1 | 20.9 | 0.00 | 0.00 | 0.00 | 41 | 1009.0 |
| 20260506071145 | 11 | 255 | 16.1 | 20.9 | 0.00 | 0.00 | 0.00 | 40 | 1009.0 |
| 20260506070645 | 11 | 255 | 16.1 | 20.9 | 0.00 | 0.00 | 0.00 | 40 | 1009.0 |
| 20260506070145 | 11 | 253 | 14.5 | 17.7 | 0.00 | 0.00 | 0.00 | 40 | 1009.0 |
| 20260506062145 | 12 | 244 | 11.3 | 14.5 | 0.00 | 0.00 | 0.00 | 37 | 1008.0 |
| 20260506061645 | 12 | 258 | 12.9 | 16.1 | 0.00 | 0.00 | 0.00 | 37 | 1008.0 |
| 20260506061144 | 12 | 257 | 12.9 | 16.1 | 0.00 | 0.00 | 0.00 | 37 | 1008.0 |
| 20260506060644 | 12 | 251 | 11.3 | 14.5 | 0.00 | 0.00 | 0.00 | 36 | 1008.0 |
| 20260506060144 | 12 | 242 | 12.9 | 16.1 | 0.00 | 0.00 | 0.00 | 36 | 1008.0 |
| 20260506051144 | 13 | 247 | 12.9 | 20.9 | 0.00 | 0.00 | 0.00 | 36 | 1007.0 |
| 20260506050644 | 13 | 246 | 16.1 | 22.5 | 0.00 | 0.00 | 0.00 | 36 | 1007.0 |
| 20260506050144 | 13 | 251 | 16.1 | 24.1 | 0.00 | 0.00 | 0.00 | 36 | 1007.0 |
| 20260506044644 | 13 | 248 | 16.1 | 25.7 | 0.00 | 0.00 | 0.00 | 36 | 1007.0 |
| 20260506044144 | 13 | 255 | 16.1 | 20.9 | 0.00 | 0.00 | 0.00 | 35 | 1007.0 |
| 20260506043645 | 13 | 247 | 16.1 | 22.5 | 0.00 | 0.00 | 0.00 | 36 | 1007.0 |
| 20260506043144 | 14 | 242 | 14.5 | 20.9 | 0.00 | 0.00 | 0.00 | 36 | 1007.0 |
| 20260506042645 | 14 | 234 | 16.1 | 22.5 | 0.00 | 0.00 | 0.00 | 35 | 1007.0 |
| 20260506042144 | 14 | 240 | 14.5 | 20.9 | 0.00 | 0.00 | 0.00 | 35 | 1007.0 |
| 20260506041645 | 14 | 222 | 19.3 | 27.4 | 0.00 | 0.00 | 0.00 | 35 | 1006.0 |
| 20260506041145 | 14 | 229 | 16.1 | 17.7 | 0.00 | 0.00 | 0.00 | 35 | 1006.0 |
| 20260506040646 | 14 | 240 | 12.9 | 17.7 | 0.00 | 0.00 | 0.00 | 35 | 1006.0 |
| 20260506040147 | 15 | 223 | 14.5 | 20.9 | 0.00 | 0.00 | 0.00 | 34 | 1006.0 |
| 20260506035644 | 15 | 232 | 14.5 | 20.9 | 0.00 | 0.00 | 0.00 | 34 | 1006.0 |
| 20260506035145 | 15 | 238 | 16.1 | 20.9 | 0.00 | 0.00 | 0.00 | 33 | 1006.0 |
| 20260506034644 | 15 | 235 | 14.5 | 17.7 | 0.00 | 0.00 | 0.00 | 33 | 1006.0 |
| 20260506034144 | 15 | 239 | 16.1 | 22.5 | 0.00 | 0.00 | 0.00 | 33 | 1006.0 |
| 20260506033645 | 15 | 226 | 14.5 | 24.1 | 0.00 | 0.00 | 0.00 | 33 | 1005.0 |
| 20260506033144 | 15 | 241 | 17.7 | 25.7 | 0.00 | 0.00 | 0.00 | 33 | 1005.0 |
| 20260506032645 | 15 | 232 | 24.1 | 29.0 | 0.00 | 0.00 | 0.00 | 32 | 1005.0 |
| 20260506032145 | 15 | 236 | 24.1 | 27.4 | 0.00 | 0.00 | 0.00 | 32 | 1005.0 |
| 20260506031646 | 16 | 224 | 16.1 | 20.9 | 0.00 | 0.00 | 0.00 | 31 | 1005.0 |
| 20260506031145 | 16 | 222 | 14.5 | 22.5 | 0.00 | 0.00 | 0.00 | 31 | 1004.0 |
| 20260506030644 | 16 | 248 | 16.1 | 24.1 | 0.00 | 0.00 | 0.00 | 31 | 1004.0 |
| 20260506030144 | 16 | 238 | 20.9 | 33.8 | 0.00 | 0.00 | 0.00 | 30 | 1004.0 |
| 20260506025645 | 16 | 236 | 37.0 | 46.7 | 0.00 | 0.00 | 0.00 | 30 | 1004.0 |
| 20260506025144 | 16 | 246 | 25.7 | 35.4 | 0.00 | 0.00 | 0.00 | 30 | 1004.0 |
| 20260506024647 | 16 | 228 | 24.1 | 40.2 | 0.00 | 0.00 | 0.00 | 30 | 1004.0 |
| 20260506024147 | 17 | 231 | 24.1 | 35.4 | 0.00 | 0.00 | 0.00 | 29 | 1003.0 |
| 20260506023647 | 17 | 219 | 20.9 | 35.4 | 0.00 | 0.00 | 0.00 | 29 | 1003.0 |
| 20260506023145 | 17 | 226 | 30.6 | 38.6 | 0.00 | 0.00 | 0.00 | 29 | 1003.0 |
| 20260506022644 | 17 | 213 | 27.4 | 37.0 | 0.00 | 0.00 | 0.00 | 28 | 1003.0 |
| 20260506022146 | 17 | 234 | 32.2 | 43.5 | 0.00 | 0.00 | 0.00 | 29 | 1003.0 |
| 20260506021645 | 17 | 233 | 29.0 | 40.2 | 0.00 | 0.00 | 0.00 | 28 | 1002.0 |
| 20260506021146 | 17 | 237 | 24.1 | 38.6 | 0.00 | 0.00 | 0.00 | 28 | 1002.0 |
| 20260506020645 | 17 | 238 | 24.1 | 33.8 | 0.00 | 0.00 | 0.00 | 28 | 1003.0 |
| 20260506020147 | 17 | 230 | 24.1 | 38.6 | 0.00 | 0.00 | 0.00 | 28 | 1002.0 |
| 20260506015644 | 18 | 236 | 19.3 | 27.4 | 0.00 | 0.00 | 0.00 | 28 | 1002.0 |
| 20260506015145 | 18 | 238 | 20.9 | 27.4 | 0.00 | 0.00 | 0.00 | 28 | 1002.0 |
| 20260506014645 | 18 | 253 | 20.9 | 37.0 | 0.00 | 0.00 | 0.00 | 27 | 1002.0 |
| 20260506014145 | 18 | 261 | 33.8 | 48.3 | 0.00 | 0.00 | 0.00 | 27 | 1001.0 |
| 20260506013644 | 18 | 268 | 33.8 | 43.5 | 0.00 | 0.00 | 0.00 | 27 | 1001.0 |
| 20260506013145 | 19 | 254 | 30.6 | 37.0 | 0.00 | 0.00 | 0.00 | 27 | 1001.0 |
| 20260506012644 | 19 | 251 | 24.1 | 35.4 | 0.00 | 0.00 | 0.00 | 26 | 1000.0 |
| 20260506012144 | 20 | 262 | 32.2 | 38.6 | 0.00 | 0.00 | 0.00 | 25 | 1000.0 |
| 20260506011644 | 20 | 262 | 33.8 | 43.5 | 0.00 | 0.00 | 0.00 | 24 | 1000.0 |
| 20260506011144 | 20 | 272 | 37.0 | 38.6 | 0.00 | 0.00 | 0.00 | 24 | 999.0 |
| 20260506010645 | 20 | 240 | 33.8 | 46.7 | 0.00 | 0.00 | 0.00 | 23 | 999.0 |
| 20260506010145 | 20 | 222 | 30.6 | 38.6 | 0.00 | 0.00 | 0.00 | 24 | 999.0 |
| 20260506005644 | 20 | 213 | 20.9 | 37.0 | 0.00 | 0.00 | 0.00 | 23 | 999.0 |
| 20260506005144 | 21 | 226 | 30.6 | 46.7 | 0.00 | 0.00 | 0.00 | 23 | 999.0 |
| 20260506004644 | 21 | 214 | 30.6 | 40.2 | 0.00 | 0.00 | 0.00 | 23 | 999.0 |
| 20260506004145 | 21 | 226 | 35.4 | 46.7 | 0.00 | 0.00 | 0.00 | 23 | 999.0 |
| 20260506003645 | 20 | 223 | 38.6 | 51.5 | 0.00 | 0.00 | 0.00 | 23 | 999.0 |
| 20260506003145 | 20 | 232 | 33.8 | 43.5 | 0.00 | 0.00 | 0.00 | 23 | 999.0 |
| 20260506002645 | 20 | 226 | 35.4 | 41.8 | 0.00 | 0.00 | 0.00 | 23 | 999.0 |
| 20260506002145 | 21 | 225 | 33.8 | 53.1 | 0.00 | 0.00 | 0.00 | 23 | 998.0 |
| 20260506001645 | 21 | 221 | 24.1 | 46.7 | 0.00 | 0.00 | 0.00 | 23 | 998.0 |
| 20260506001144 | 21 | 220 | 30.6 | 41.8 | 0.00 | 0.00 | 0.00 | 23 | 998.0 |
| 20260506000645 | 21 | 223 | 33.8 | 48.3 | 0.00 | 0.00 | 0.00 | 23 | 998.0 |
| 20260506000145 | 22 | 218 | 25.7 | 46.7 | 0.00 | 0.00 | 0.00 | 22 | 998.0 |
| 20260505235645 | 22 | 227 | 38.6 | 53.1 | 0.00 | 0.00 | 0.00 | 22 | 998.0 |
| 20260505235144 | 22 | 232 | 37.0 | 46.7 | 0.00 | 0.00 | 0.00 | 21 | 998.0 |
| 20260505234644 | 22 | 209 | 37.0 | 46.7 | 0.00 | 0.00 | 0.00 | 22 | 998.0 |
| 20260505234144 | 22 | 233 | 30.6 | 43.5 | 0.00 | 0.00 | 0.00 | 22 | 998.0 |